PST,Max TemperatureF,Mean TemperatureF,Min TemperatureF,Max Dew PointF,MeanDew PointF,Min DewpointF,Max Humidity, Mean Humidity, Min Humidity, Max Sea Level PressureIn, Mean Sea Level PressureIn, Min Sea Level PressureIn, Max VisibilityMiles, Mean VisibilityMiles, Min VisibilityMiles, Max Wind SpeedMPH, Mean Wind SpeedMPH, Max Gust SpeedMPH,PrecipitationIn, CloudCover, Events, WindDirDegrees
2014-1-1,55,47,39,45,38,36,93,82,58,30.23,30.18,30.14,10,8,4,6,0,,0.00,1,,54
2014-1-2,60,50,41,46,38,36,87,72,42,30.19,30.13,30.06,10,10,7,6,0,,0.00,1,,20
2014-1-3,55,48,42,46,39,36,81,72,54,30.09,30.03,29.97,10,10,9,8,1,,0.00,1,,359
2014-1-4,62,52,41,48,39,27,100,76,38,30.09,30.03,29.99,10,8,0,6,2,,0.00,1,Fog,264
2014-1-5,62,50,39,39,29,23,81,52,32,30.22,30.15,30.09,10,10,10,4,0,,0.00,0,,325
2014-1-6,57,49,41,46,37,32,87,68,48,30.29,30.22,30.18,10,10,7,6,1,,0.00,2,,238
2014-1-7,59,52,46,52,44,39,88,76,55,30.22,30.19,30.14,10,9,5,9,3,,0.00,3,,308
2014-1-8,57,52,46,52,48,45,100,87,72,30.24,30.21,30.17,10,9,2,10,4,,0.00,6,,296
2014-1-9,59,52,46,50,45,39,94,83,58,30.27,30.23,30.21,10,9,5,18,3,23,0.00,4,,245
2014-1-10,59,52,44,50,44,39,94,82,63,30.32,30.25,30.19,10,10,7,7,2,,0.00,2,,342
2014-1-11,57,50,44,50,45,41,93,86,72,30.30,30.24,30.18,10,9,6,8,2,,0.00,4,,269
2014-1-12,59,50,41,46,41,36,100,78,44,30.40,30.33,30.28,10,10,9,12,4,,0.00,2,,271
2014-1-13,66,54,41,46,35,32,81,57,30,30.47,30.40,30.35,10,10,10,9,2,,0.00,0,,205
2014-1-14,69,55,41,45,33,27,81,54,20,30.46,30.39,30.33,10,10,10,13,2,,0.00,0,,222
2014-1-15,69,56,44,41,33,28,71,52,25,30.36,30.28,30.21,10,10,10,6,2,,0.00,0,,197
2014-1-16,69,56,42,41,34,30,71,55,25,30.25,30.19,30.13,10,10,9,5,1,,0.00,0,,152
2014-1-17,62,52,42,46,36,32,71,60,45,30.20,30.15,30.12,10,9,6,7,1,,0.00,0,,344
2014-1-18,62,52,41,46,37,32,87,67,48,30.18,30.12,30.07,10,8,6,7,0,,0.00,0,,44
2014-1-19,66,52,39,43,34,32,76,61,32,30.15,30.10,30.07,10,9,6,7,0,,0.00,0,,333
2014-1-20,64,52,41,48,36,34,81,66,39,30.24,30.17,30.12,10,8,6,6,1,,0.00,0,,350
2014-1-21,66,54,41,41,34,30,76,60,26,30.28,30.22,30.17,10,10,10,5,0,,0.00,1,,24
2014-1-22,64,52,41,46,36,30,82,64,45,30.18,30.07,29.94,10,10,10,7,1,,0.00,0,,321
2014-1-23,66,54,42,43,36,28,82,60,24,30.02,29.94,29.89,10,10,7,7,1,,0.00,1,,264
2014-1-24,60,50,41,46,40,36,87,73,55,30.25,30.12,30.02,8,6,4,4,0,,0.00,3,,59
2014-1-25,66,56,46,46,41,37,81,55,35,30.26,30.19,30.13,10,8,5,7,1,,0.00,2,,41
2014-1-26,68,58,48,50,44,34,88,63,28,30.14,30.09,30.04,10,10,10,6,4,,0.00,4,,16
2014-1-27,57,52,48,50,48,46,93,83,72,30.22,30.18,30.14,10,9,6,7,4,,0.00,4,,104
2014-1-28,66,58,50,57,51,46,94,86,68,30.28,30.23,30.20,10,10,8,13,2,,0.00,7,,272
2014-1-29,64,60,55,57,54,46,100,90,72,30.22,30.14,30.00,10,8,2,14,2,,0.00,8,,305
2014-1-30,59,55,51,50,47,43,88,76,55,30.00,29.93,29.89,10,10,10,14,5,20,0.00,7,Rain,272
2014-1-31,59,52,46,45,41,27,87,70,29,30.10,30.02,29.93,10,10,10,15,6,20,0.00,2,,290